Location: Domont
(49.0278°N, 2.3264°E)
Time: 02:14:39
(UTC+00:00)

Orbus 7S? - Pass Details

Date: 07 June 2022
Orbit: 345 x 6369 km, 56.9° (Epoch: 01 July)

Event Time Altitude Azimuth Distance (km) Brightness Sun altitude
Rises 20:53:17 0° 182° (S) 4,279 7.4 -8.1°
Reaches altitude 10° 20:55:34 10° 174° (S) 3,749 7.0 -8.4°
Maximum altitude 21:05:14 43° 107° (ESE) 3,525 7.0 -9.4°
Drops below altitude 10° 21:28:11 10° 48° (NE) 8,597 9.5 -11.5°
Sets 21:37:06 0° 45° (NE) 10,370 10.0 -12.3°
